Forks, WA (98331)

4:06 AM PDT on July 29, 2016 (GMT -0700)
Quillayute | | Change Station

Elev 194 ft 47.94 °N, 124.56 °W | Updated 5 minutes ago

Fog
Fog
52 °F
Feels Like 52 °F
N
0
Wind Variable Wind from North

Today
High -- | Low -- °F
--% Chance of Precip.
Yesterday
High -- | Low -- °F
Precip. -- in
Pressure 30.02 in
Visibility 0.5 miles
Clouds Overcast 200 ft
Dew Point 52 °F
Humidity 100%
Rainfall 0.00 in
Snow Depth Not available.
5:51 AM 8:56 PM
Waning Crescent, 23% visible
SPECI KUIL 291101Z AUTO 00000KT 1/2SM FG OVC002 11/11 A3002 RMK AO2 T01110111
Pressure 30.02 in
Visibility 0.5 miles
Clouds Overcast 200 ft
Dew Point 52 °F
Humidity 100%
Rainfall 0.00 in
Snow Depth Not available.
5:51 AM 8:56 PM
Waning Crescent, 23% visible
SPECI KUIL 291101Z AUTO 00000KT 1/2SM FG OVC002 11/11 A3002 RMK AO2 T01110111

10-Day Weather Forecast

Almanac

Astronomy

Jul. 29, 2016 Rise Set
Actual Time
Civil Twilight
Nautical Twilight
Astronomical Twilight
Moon
Length of Visible Light
Length of Day
Tomorrow will be .
, % of the Moon is Illuminated

Today's Extremes

State Highs State Lows

Community

WunderPhotos

Upload Photos

1,928,312 photos uploaded!

WunderBlog® & News

Nearby

Air Quality

  Air Quality AQ Index Pollutant
Not available.

Snow Depth

Station Depth Elevation

Earthquake Activity

City Distance Mag. Time & Date
Minimum magnitude displayed is 2.5.

Coastal Water Temperatures

Place Temperature

Stations

Nearby Weather Stations

Station Location Temp. Windchill Dew Point Humidity Wind Precip. Elev Updated Type
                   

Watches & Warnings

There are currently no watches in effect.